Location: Kapuskasing
(49.3803°N, 82.4001°W)
Time: 10:34:00
(UTC-04:00)

RS-44 - Pass Details

Date: 17 March 2026
Orbit: 1175 x 1510 km, 82.5° (Epoch: 11 April)

Event Time Altitude Azimuth Distance (km) Brightness Sun altitude
Rises 05:34:22 0° 343° (NNW) 4,422 ? -20.6°
Reaches altitude 10° 05:37:41 10° 331° (NNW) 3,494 ? -20.1°
Maximum altitude 05:44:05 25° 281° (W) 2,580 ? -19.1°
Enters shadow 05:45:15 25° 269° (W) 2,628 ? -18.9°
